Theta_e
312 311 310 309 308 308 309 310 309 308 307 305 305 304 305 305 305 303 304 304 304 304 303 303 303 302 303 303 302 302 302 302 303 302 302 301 301 301 301 301 301 302 301
308 308 306 306 304 303 306 307 308 308 306 304 303 303 303 304 304 303 303 303 302 302 302 302 302 302 302 302 301 301 301 300 302 302 300 301 300 301 300 301 300 301 301
305 304 305 305 304 304 305 306 306 304 302 302 302 303 302 303 303 303 303 303 303 302 302 302 302 302 302 300 299 299 299 300 300 300 300 300 300 300 300 301 300 300 300
307 307 306 305 305 304 303 303 303 302 302 301 301 301 301 301 302 302 303 303 303 303 303 303 302 302 301 300 299 298 299 298 299 298 298 299 299 299 299 299 300 298 299
306 306 304 304 305 304 303 303 304 302 302 303 302 302 301 301 302 302 303 303 303 303 304 304 304 303 302 301 298 298 298 298 297 297 297 298 298 299 299 299 298 297 296
306 306 307 305 304 303 303 300 302 302 302 302 302 303 303 302 303 300 299 298 300 302 303 304 304 305 304 300 301 299 298 296 297 297 298 298 298 299 299 298 296 295 296
307 308 307 307 307 306 305 304 303 302 302 302 303 303 303 303 304 303 303 302 300 301 302 303 305 305 303 304 303 301 300 299 297 297 298 298 298 298 296 295 295 296 296
308 306 307 307 305 305 305 304 304 305 305 304 304 304 305 305 305 305 304 303 302 303 303 304 304 305 304 303 302 301 300 298 298 297 295 296 297 294 293 294 295 295 295
307 306 306 305 306 306 305 305 306 306 306 305 305 305 306 306 306 306 305 303 303 304 304 304 305 305 305 303 300 297 296 296 296 295 295 295 293 294 295 295 295 295 296
306 306 306 306 307 307 307 307 307 307 306 307 307 307 306 306 307 307 306 304 305 306 306 305 304 303 302 297 296 294 295 295 295 295 294 294 295 296 297 295 295 295 295
307 307 306 306 306 307 307 307 308 308 307 307 307 307 307 307 307 308 308 306 306 305 304 303 303 301 298 296 295 295 294 295 294 294 295 295 296 297 296 295 295 295 295
307 307 307 307 307 307 307 308 308 309 309 309 309 309 308 308 308 308 307 304 303 303 300 300 301 299 297 296 296 295 295 296 295 295 295 297 296 296 296 295 295 295 295
307 307 308 308 309 309 309 309 309 310 310 309 309 309 310 309 308 306 305 304 302 301 300 298 298 297 296 295 295 296 297 296 296 297 296 296 296 296 294 294 294 295 294
308 308 309 309 309 310 309 310 310 310 309 309 309 307 305 304 304 303 302 301 302 302 300 295 294 294 294 296 297 297 297 296 295 296 296 295 294 294 295 294 295 293 293
308 309 309 309 309 309 310 309 309 309 309 308 307 305 305 304 304 302 300 299 297 296 294 293 294 295 297 298 297 296 295 295 295 296 294 294 294 293 293 294 294 294 293
309 309 309 309 309 309 309 311 309 307 306 302 301 300 302 302 301 298 296 296 294 293 292 292 294 296 298 296 296 295 295 294 294 294 294 294 292 292 293 293 293 293 292
309 309 309 310 309 310 310 310 309 307 306 304 301 299 297 300 296 295 295 293 292 292 291 293 296 297 296 296 296 295 295 294 293 294 293 292 292 293 292 293 293 292 291
310 310 310 309 309 309 309 309 307 307 307 306 303 301 298 296 295 294 293 293 293 297 296 295 296 297 297 296 296 295 294 293 293 293 292 292 292 292 293 292 292 291 290
308 308 309 309 308 306 307 305 305 306 305 304 305 302 299 297 296 294 293 293 294 296 297 297 297 297 296 296 295 295 294 293 292 292 292 292 292 292 291 292 291 290 289
308 308 307 306 303 304 306 306 305 306 305 303 302 303 300 298 296 296 296 295 294 297 298 297 296 296 296 295 295 295 293 292 292 292 292 291 291 290 290 291 289 289 289
307 307 306 306 305 304 305 304 304 305 304 302 302 300 300 298 299 298 298 298 298 298 297 297 296 296 295 295 295 294 292 292 291 291 291 290 289 289 290 289 288 288 289
307 307 306 306 305 305 306 306 306 306 303 302 302 300 299 298 298 298 298 299 298 297 297 296 296 295 295 295 294 294 293 291 291 290 290 289 288 287 289 287 287 288 289
306 306 305 305 305 305 305 305 304 304 303 302 302 302 298 297 298 299 299 298 298 297 296 295 295 294 294 295 294 293 292 291 290 289 288 287 287 288 287 287 287 288 289
306 303 303 304 305 305 305 305 305 304 303 302 301 302 300 299 299 299 298 298 298 297 296 295 294 294 294 295 294 292 291 289 288 288 287 287 286 286 286 286 287 288 288
307 306 304 304 304 305 305 305 305 304 304 303 302 302 301 301 299 298 298 298 298 297 296 295 294 294 294 294 292 291 290 289 287 287 287 286 285 286 286 286 287 287 288
308 307 306 305 305 306 306 306 305 304 303 302 302 302 301 300 299 299 298 298 297 296 295 294 294 294 293 292 291 289 288 288 288 287 287 286 286 286 286 286 286 288 288
Wind_Speed
16 18 16 15 12 10 8 8 10 10 8 7 7 6 6 6 6 7 8 7 6 6 6 6 6 7 8 9 9 11 11 14 14 23 25 27 30 29 27 28 28 23 27
28 26 22 18 13 9 10 9 7 8 6 6 6 6 7 6 6 5 6 6 5 4 5 4 5 6 7 9 10 12 12 13 14 17 26 27 30 28 31 29 30 22 23
19 19 17 15 11 10 8 7 7 7 6 6 7 7 5 4 5 3 2 2 2 2 2 3 4 4 5 7 9 11 12 14 16 18 21 22 25 26 29 26 29 31 24
17 17 14 11 9 9 7 4 3 3 4 6 5 3 1 2 1 2 3 2 3 5 6 6 7 7 5 7 7 11 11 18 17 20 22 22 23 24 25 30 27 31 32
12 10 9 9 9 8 5 5 5 6 5 3 5 6 7 8 9 10 4 4 6 8 10 11 10 7 16 14 12 11 12 13 17 19 21 23 23 24 27 23 27 31 36
11 11 10 12 10 8 10 9 9 10 9 8 6 8 9 10 12 12 11 9 9 12 13 15 15 16 18 6 12 11 11 13 18 21 23 23 27 26 24 25 28 30 25
11 11 12 11 12 13 15 12 12 11 11 12 13 14 15 16 17 15 13 13 14 14 16 19 20 17 12 15 14 12 17 19 22 24 27 27 28 26 24 30 29 28 31
11 10 11 14 11 12 13 16 13 13 15 16 16 17 18 17 17 18 18 17 15 17 19 21 22 22 22 19 18 19 18 20 22 25 29 32 26 31 33 30 30 31 33
13 13 15 17 13 15 16 16 15 16 17 17 16 16 18 19 19 19 19 19 17 21 20 22 22 22 22 18 15 12 19 22 24 27 26 31 35 26 29 25 22 28 27
9 12 10 12 13 13 13 12 12 14 14 16 18 20 21 22 19 17 16 19 18 19 17 20 22 15 16 7 12 16 19 23 24 25 31 33 33 34 21 17 22 25 29
10 6 7 7 7 8 9 10 11 12 14 14 17 20 19 19 18 19 17 18 16 14 16 18 14 13 9 15 20 24 27 29 32 31 31 31 32 24 17 20 24 28 30
7 3 5 6 7 10 11 10 10 11 13 17 18 20 21 20 19 17 13 12 13 17 14 15 18 13 21 25 28 31 31 32 33 28 29 25 26 25 19 25 30 34 26
5 7 5 5 7 9 10 12 13 14 15 16 16 16 13 12 9 5 6 9 12 14 17 15 20 19 23 30 33 29 28 26 25 22 23 26 22 23 30 29 30 26 34
7 6 7 9 14 16 16 14 15 15 14 10 6 6 8 7 7 10 11 9 12 13 13 12 18 24 25 28 28 17 13 16 21 23 21 21 25 29 26 28 26 29 32
11 14 15 17 20 19 14 14 15 12 8 6 6 7 6 6 5 6 9 9 10 13 17 20 18 21 23 17 14 17 19 19 21 19 19 24 26 25 30 27 26 27 27
15 15 17 18 17 12 11 9 7 7 7 5 6 7 4 6 9 9 7 9 12 13 16 14 18 21 18 14 16 16 17 19 20 20 21 20 26 29 27 28 25 25 28
12 18 16 16 11 5 8 8 9 8 9 11 11 9 8 8 8 8 10 12 15 14 16 17 21 19 13 14 15 15 16 18 24 19 17 24 27 24 28 26 25 26 32
14 17 10 12 12 11 13 11 8 9 13 19 20 17 14 11 7 6 6 9 13 15 18 22 20 14 14 14 15 15 16 19 21 17 20 21 23 24 25 25 25 27 32
7 9 9 10 11 8 8 10 8 14 14 11 16 18 19 15 12 11 12 15 15 16 19 13 14 14 15 16 17 17 16 18 16 19 21 20 21 22 26 24 26 31 33
10 14 11 7 11 13 13 13 14 18 15 10 12 18 18 16 14 16 18 20 21 23 19 12 13 16 16 17 19 17 15 17 18 20 20 18 19 24 26 24 27 30 30
11 8 11 6 11 16 15 10 14 15 14 8 11 8 16 18 13 10 12 16 17 12 12 12 14 16 18 19 19 16 15 17 19 20 15 18 22 25 24 25 28 29 29
11 14 12 13 12 15 18 13 15 22 14 13 16 12 15 17 14 13 15 16 8 12 14 14 15 17 19 19 17 17 16 18 16 13 18 19 21 23 24 26 26 27 28
12 14 15 16 16 16 13 15 17 18 19 16 16 18 22 21 18 18 16 7 7 9 13 13 17 20 19 19 18 15 16 12 9 11 14 18 21 20 23 24 25 25 26
13 14 17 19 17 17 18 16 18 23 25 22 21 18 14 19 21 12 9 13 12 9 11 11 18 18 19 20 17 14 13 13 12 13 20 16 19 22 20 21 21 24 26
14 14 16 18 19 18 19 20 18 20 22 18 22 19 23 18 11 12 8 11 11 10 11 13 16 18 18 18 18 15 12 13 17 19 18 22 18 21 19 20 20 22 24
19 17 17 17 19 17 13 12 13 15 16 20 23 28 25 21 17 14 14 13 10 10 11 14 17 17 16 16 15 11 13 16 13 17 24 23 17 18 18 18 20 20 21
Wind_Direction
143 119 114 100 95 100 110 101 114 120 127 132 131 123 114 104 95 103 102 95 73 52 47 46 45 24 19 18 9 4 351 346 331 316 323 324 323 321 324 320 320 318 319
101 104 96 93 89 91 85 94 105 128 123 120 116 111 102 90 82 78 58 73 86 80 28 14 19 18 5 11 359 350 339 338 331 321 318 318 317 320 318 320 318 322 319
95 101 99 98 98 99 101 109 121 122 119 111 118 92 93 92 89 80 72 46 20 4 344 321 336 332 342 343 341 342 331 331 328 305 308 310 310 315 317 317 319 318 319
106 114 110 109 109 111 108 113 123 129 135 129 124 124 98 78 217 207 204 248 290 311 289 284 283 285 286 309 310 317 319 322 315 315 308 307 308 315 320 317 318 320 319
133 129 140 146 145 138 134 185 161 181 192 225 182 210 224 239 239 221 217 264 290 281 285 281 286 285 295 287 287 289 287 295 305 303 305 307 311 316 310 318 316 317 310
158 175 180 177 178 182 176 170 201 213 220 200 213 245 242 251 256 238 250 273 274 281 291 286 289 285 286 266 281 278 269 290 303 303 301 299 300 300 311 310 310 310 305
185 200 202 199 205 202 188 196 212 213 219 228 234 240 241 241 248 248 266 271 276 276 277 279 282 282 269 294 284 282 293 286 297 303 300 296 302 304 311 307 302 300 299
179 194 180 183 201 206 217 222 209 218 225 232 238 241 245 246 249 249 256 259 261 269 274 273 273 278 278 282 276 278 284 290 291 296 292 294 294 301 301 293 295 296 298
188 194 202 196 199 202 211 216 222 220 226 234 240 245 253 251 255 259 249 248 264 273 275 285 287 282 276 272 280 293 293 293 298 298 294 291 294 290 288 286 292 306 299
200 193 204 201 202 204 208 218 219 223 237 243 244 246 251 257 264 264 247 246 254 274 289 294 294 275 275 276 308 307 291 298 301 294 296 297 294 289 283 288 304 298 294
194 184 182 196 215 232 242 243 240 241 248 258 258 263 265 265 267 267 257 248 257 280 292 288 293 294 264 308 314 311 303 295 292 292 290 290 291 289 291 304 308 300 294
186 183 201 204 228 233 242 260 263 260 262 268 270 272 276 281 284 266 247 232 264 286 276 280 290 287 313 310 303 296 291 291 289 285 284 291 314 307 317 313 309 305 291
220 202 225 239 246 260 267 268 268 265 267 276 279 280 289 287 281 244 300 304 299 280 287 279 298 304 301 296 291 289 287 291 288 282 302 301 309 317 317 313 310 304 307
214 238 252 257 259 263 263 266 272 271 274 279 255 267 276 275 277 290 293 286 287 285 283 300 302 305 297 287 292 297 309 315 312 303 304 320 324 317 313 314 312 316 314
235 243 252 255 263 269 266 273 270 273 256 269 282 264 275 294 290 278 294 285 290 301 309 312 310 296 288 295 328 331 326 318 315 314 330 324 316 323 315 314 316 317 315
234 246 258 269 266 275 273 267 262 229 245 255 244 249 246 258 273 280 281 283 285 294 298 293 287 282 291 331 327 321 320 320 320 323 322 323 324 312 314 315 321 321 319
242 262 275 280 291 277 253 248 236 241 249 247 234 220 195 218 261 274 283 290 289 287 272 266 270 282 315 311 314 317 319 323 320 317 331 329 314 317 320 320 327 327 323
230 237 264 266 270 255 256 250 252 253 226 231 229 223 219 214 226 266 275 277 299 290 253 246 263 305 312 316 319 320 321 318 309 327 327 318 316 325 324 327 332 330 325
271 259 255 246 284 291 262 278 255 250 253 276 198 213 217 221 230 252 253 254 261 278 286 306 312 319 322 321 317 313 313 314 331 335 324 322 328 331 331 329 332 330 323
263 250 251 270 275 269 246 236 238 245 247 234 254 209 203 209 229 251 256 251 246 254 269 309 312 315 316 317 312 315 326 334 332 326 317 328 343 341 327 336 334 326 322
274 244 215 239 270 275 282 288 279 268 254 260 272 248 191 188 227 282 275 269 245 285 314 321 319 318 319 316 319 331 333 328 319 316 341 353 345 332 329 334 328 321 321
267 271 237 238 254 253 261 258 266 267 262 251 258 236 222 222 229 251 253 264 304 320 320 320 320 315 315 315 325 320 320 313 318 350 347 340 335 326 327 328 323 320 322
260 268 270 271 269 264 257 259 266 267 267 268 272 264 214 216 222 242 245 280 283 292 301 306 308 302 300 305 317 315 315 320 330 345 342 334 328 325 326 321 319 318 322
259 272 282 286 283 281 283 278 258 257 259 254 253 264 216 228 227 241 265 276 267 271 280 283 288 288 293 301 302 311 309 313 330 326 331 334 323 321 321 315 316 319 322
240 252 263 272 280 285 288 288 286 281 278 283 287 275 267 275 238 257 231 250 257 248 266 284 282 287 298 304 309 304 298 309 320 325 331 329 319 316 314 313 316 318 318
235 245 256 269 279 289 319 344 335 327 323 309 299 283 270 269 266 249 234 234 242 267 286 285 286 295 303 311 306 299 316 319 320 326 326 328 316 310 308 308 309 312 313